Weather History for Randolph AFB, TX

Change the Weather History Date:

Sunday, November 18, 2012

  Actual Average Record
Temperature  
Mean Temperature 58 °F -  
Max Temperature 73 °F 68 °F 82 °F (1999)
Min Temperature 42 °F 50 °F 32 °F (2014)
Degree Days  
Heating Degree Days 8    
Growing Degree Days 8 (Base 50)    
Moisture  
Dew Point 48 °F    
Average Humidity 67    
Maximum Humidity 93    
Minimum Humidity 41    
Precipitation  
Precipitation 0.00 in - - ()
Sea Level Pressure  
Sea Level Pressure 30.23 in    
Wind  
Wind Speed 5 mph (SSE)    
Max Wind Speed 14 mph    
Max Gust Speed 17 mph    
Visibility 10 miles    
Events      
Averages and records for this station are not official NWS values.
T = Trace of Precipitation, MM = Missing Value Source: NWS Daily Summary

Daily Weather History Graph

Daily Weather History Graph

Search for Another Location

Airport:

Trip Planner

Search our weather history database for the weather conditions in past years. The results will help you decide how hot, cold, wet, or windy it might be!

Date:

Astronomy

Nov. 18, 2012 Rise Set
Actual Time 7:00 AM CST 5:36 PM CST
Civil Twilight 6:34 AM CST 6:01 PM CST
Nautical Twilight 6:05 AM CST 6:30 PM CST
Astronomical Twilight 5:37 AM CST 6:59 PM CST
Moon 11:32 AM CST (11/18) 10:50 PM CST (11/18)
Length of Visible Light 11h 26m
Length of Day
10h 36m
Waxing Crescent, 30% of the Moon is Illuminated
Nov 18
Waxing Crescent
Nov 20
First Quarter
Nov 28
Full
Dec 6
Last Quarter
Dec 13
New

Hourly Weather History & Observations

Time (CST) Temp. Windchill Dew Point Humidity Pressure Visibility Wind Dir Wind Speed Gust Speed Precip Events Conditions
12:55 AM 45.3 °F - 39.7 °F 81% 30.28 in 10.0 mi Calm Calm - N/A   Clear
1:55 AM 45.3 °F - 38.8 °F 78% 30.27 in 10.0 mi Calm Calm - N/A   Clear
2:55 AM 43.2 °F 40.5 °F 38.7 °F 84% 30.26 in 10.0 mi NNW 4.6 mph - N/A   Clear
3:55 AM 44.1 °F - 39.4 °F 84% 30.24 in 10.0 mi Calm Calm - N/A   Partly Cloudy
4:55 AM 43.0 °F 40.3 °F 39.7 °F 88% 30.25 in 10.0 mi NNW 4.6 mph - N/A   Clear
5:55 AM 42.8 °F 40.1 °F 40.1 °F 90% 30.25 in 10.0 mi NNW 4.6 mph - N/A   Clear
6:55 AM 42.6 °F 39.9 °F 40.6 °F 93% 30.26 in 10.0 mi North 4.6 mph - N/A   Clear
7:55 AM 46.8 °F - 44.2 °F 91% 30.28 in 10.0 mi NNW 3.5 mph - N/A   Clear
8:55 AM 56.1 °F - 49.5 °F 78% 30.29 in 10.0 mi East 4.6 mph - N/A   Clear
9:55 AM 61.7 °F - 51.1 °F 68% 30.29 in 10.0 mi Variable 5.8 mph - N/A   Clear
10:55 AM 66.7 °F - 52.9 °F 61% 30.28 in 10.0 mi SSE 5.8 mph - N/A   Clear
11:55 AM 69.8 °F - 52.3 °F 54% 30.25 in 10.0 mi SE 6.9 mph - N/A   Clear
12:55 PM 71.2 °F - 50.9 °F 49% 30.22 in 10.0 mi SSE 6.9 mph - N/A   Clear
1:55 PM 72.3 °F - 48.4 °F 43% 30.19 in 10.0 mi SSE 13.8 mph 17.3 mph N/A   Clear
2:55 PM 73.6 °F - 48.7 °F 41% 30.18 in 10.0 mi South 9.2 mph - N/A   Clear
3:55 PM 71.6 °F - 48.9 °F 45% 30.17 in 10.0 mi South 8.1 mph - N/A   Clear
4:22 PM 71.6 °F - 50.0 °F 46% 30.17 in 10.0 mi SSE 6.9 mph - N/A   Light Drizzle
4:33 PM 71.6 °F - 50.0 °F 46% 30.17 in 10.0 mi SE 11.5 mph - N/A   Clear
4:55 PM 70.7 °F - 50.5 °F 49% 30.17 in 10.0 mi SSE 11.5 mph - N/A   Clear
5:55 PM 64.8 °F - 49.8 °F 58% 30.19 in 10.0 mi SSE 4.6 mph - N/A   Partly Cloudy
6:55 PM 65.1 °F - 52.2 °F 63% 30.21 in 10.0 mi SE 4.6 mph - N/A   Overcast
7:55 PM 66.6 °F - 51.6 °F 59% 30.22 in 10.0 mi SE 8.1 mph - N/A   Overcast
8:55 PM 65.1 °F - 53.2 °F 65% 30.22 in 10.0 mi SSE 11.5 mph - N/A   Overcast
9:55 PM 63.0 °F - 54.0 °F 72% 30.21 in 10.0 mi SSE 13.8 mph - N/A   Partly Cloudy
10:55 PM 61.5 °F - 54.0 °F 76% 30.21 in 10.0 mi South 8.1 mph - N/A   Partly Cloudy
11:55 PM 59.5 °F - 54.1 °F 82% 30.21 in 10.0 mi South 8.1 mph - N/A   Clear